Luverne, MN

5:28 AM CDT on September 27, 2016 (GMT -0500)
Luverne

Weather History for KLYV - April, 2014

Change the Weather History Date:

Wednesday, April 30, 2014

  Actual Average (KFSD) Record (KFSD)
Temperature  
Mean Temperature 40 °F 53 °F  
Max Temperature 42 °F 65 °F 92 °F (1992)
Min Temperature 37 °F 40 °F 17 °F (1903)
Degree Days  
Heating Degree Days 26 13  
Month to date heating degree days 562  
Since 1 July heating degree days 7407  
Cooling Degree Days 0 0  
Month to date cooling degree days 5  
Year to date cooling degree days 5  
Moisture  
Dew Point 35 °F    
Average Humidity 80    
Maximum Humidity 87    
Minimum Humidity 70    
Precipitation  
Precipitation 0.00 in 0.10 in 1.87 in (1937)
Month to date precipitation 3.01  
Year to date precipitation 5.93  
Snow  
Snow 0.00 in 0.10 in T in (2005)
Month to date snowfall 4.6  
Since 1 July snowfall 44.5  
Snow Depth -    
Sea Level Pressure  
Sea Level Pressure 29.87 in    
Wind  
Wind Speed 15 mph (NNW)    
Max Wind Speed 24 mph    
Max Gust Speed 32 mph    
Visibility 10 miles    
Events Rain    
T = Trace of Precipitation, MM = Missing Value Source: NWS Daily Summary

Daily Weather History Graph

Daily Weather History Graph

Search for Another Location

Airport or City:

Trip Planner

Search our weather history database for the weather conditions in past years. The results will help you decide how hot, cold, wet, or windy it might be!

Date:

Astronomy

Apr. 30, 2014 Rise Set
Actual Time 6:18 AM CDT 8:26 PM CDT
Civil Twilight 5:47 AM CDT 8:57 PM CDT
Nautical Twilight 5:08 AM CDT 9:36 PM CDT
Astronomical Twilight 4:26 AM CDT 10:19 PM CDT
Moon 7:19 AM CDT (4/30) 10:07 PM CDT (4/30)
Length of Visible Light 15h 10m
Length of Day
14h 07m
New Moon, 2% of the Moon is Illuminated
Apr 30
New Moon
May 6
First Quarter
May 14
Full
May 21
Last Quarter
May 28
New

Hourly Weather History & Observations

Time (CDT) Temp. Windchill Dew Point Humidity Pressure Visibility Wind Dir Wind Speed Gust Speed Precip Events Conditions
12:15 AM 41.0 °F 33.9 °F 35.6 °F 81% 29.86 in 10.0 mi North 12.7 mph 19.6 mph N/A   Overcast
12:35 AM 41.0 °F 34.3 °F 35.6 °F 81% 29.85 in 10.0 mi NNW 11.5 mph - N/A   Overcast
12:55 AM 41.0 °F 34.3 °F 35.6 °F 81% 29.85 in 10.0 mi NNW 11.5 mph - N/A   Overcast
1:15 AM 41.0 °F 34.3 °F 35.6 °F 81% 29.85 in 10.0 mi NNW 11.5 mph - N/A   Overcast
1:35 AM 41.0 °F 34.3 °F 35.6 °F 81% 29.85 in 10.0 mi NNW 11.5 mph - N/A   Light Drizzle
1:55 AM 41.0 °F 34.7 °F 35.6 °F 81% 29.85 in 10.0 mi NW 10.4 mph - N/A Rain Light Rain
2:15 AM 41.0 °F 35.8 °F 35.6 °F 81% 29.85 in 10.0 mi NNW 8.1 mph - N/A   Light Drizzle
2:35 AM 41.0 °F 33.9 °F 35.6 °F 81% 29.85 in 10.0 mi NW 12.7 mph 17.3 mph N/A   Light Drizzle
2:55 AM 41.0 °F 34.3 °F 35.6 °F 81% 29.85 in 10.0 mi NNW 11.5 mph - N/A   Overcast
3:15 AM 41.0 °F 33.9 °F 35.6 °F 81% 29.84 in 10.0 mi NW 12.7 mph - N/A   Overcast
3:35 AM 41.0 °F 34.3 °F 35.6 °F 81% 29.84 in 10.0 mi NW 11.5 mph - N/A   Overcast
3:55 AM 41.0 °F 34.7 °F 35.6 °F 81% 29.84 in 10.0 mi NNW 10.4 mph - N/A   Overcast
4:15 AM 41.0 °F 34.3 °F 35.6 °F 81% 29.84 in 10.0 mi NNW 11.5 mph - N/A   Overcast
4:35 AM 41.0 °F 34.7 °F 35.6 °F 81% 29.84 in 10.0 mi NW 10.4 mph - N/A   Overcast
4:55 AM 39.2 °F 32.0 °F 33.8 °F 81% 29.84 in 10.0 mi NNW 11.5 mph 18.4 mph N/A   Mostly Cloudy
5:14 AM 39.2 °F 30.5 °F 33.8 °F 81% 29.84 in 10.0 mi NNW 16.1 mph 20.7 mph N/A   Scattered Clouds
5:35 AM 39.2 °F 31.6 °F 33.8 °F 81% 29.84 in 10.0 mi NNW 12.7 mph 18.4 mph N/A   Mostly Cloudy
6:15 AM 37.4 °F 27.8 °F 33.8 °F 87% 29.85 in 10.0 mi NNW 17.3 mph 21.9 mph N/A   Overcast
6:35 AM 37.4 °F 27.8 °F 33.8 °F 87% 29.85 in 10.0 mi NNW 17.3 mph 21.9 mph N/A   Overcast
6:55 AM 37.4 °F 29.3 °F 33.8 °F 87% 29.85 in 10.0 mi NNW 12.7 mph 21.9 mph N/A   Overcast
7:15 AM 37.4 °F 28.9 °F 33.8 °F 87% 29.85 in 10.0 mi NNW 13.8 mph 21.9 mph N/A   Light Drizzle
7:34 AM 37.4 °F 28.2 °F 33.8 °F 87% 29.85 in 10.0 mi NNW 16.1 mph 23.0 mph N/A   Drizzle
7:55 AM 37.4 °F 27.2 °F 33.8 °F 87% 29.85 in 10.0 mi NNW 19.6 mph 25.3 mph N/A   Drizzle
8:15 AM 37.4 °F 28.2 °F 33.8 °F 87% 29.85 in 10.0 mi NNW 16.1 mph 25.3 mph N/A   Drizzle
8:35 AM 37.4 °F 28.9 °F 33.8 °F 87% 29.85 in 10.0 mi North 13.8 mph 25.3 mph N/A   Light Drizzle
8:55 AM 39.2 °F 29.6 °F 33.8 °F 81% 29.85 in 10.0 mi North 19.6 mph 26.5 mph N/A   Light Drizzle
9:15 AM 39.2 °F 29.3 °F 33.8 °F 81% 29.85 in 10.0 mi North 20.7 mph 28.8 mph N/A   Overcast
9:35 AM 41.0 °F 31.4 °F 35.6 °F 81% 29.85 in 10.0 mi North 21.9 mph 26.5 mph N/A   Overcast
10:15 AM 41.0 °F 31.9 °F 33.8 °F 76% 29.86 in 10.0 mi North 19.6 mph 27.6 mph N/A   Overcast
10:35 AM 41.0 °F 30.9 °F 33.8 °F 76% 29.86 in 10.0 mi North 24.2 mph 29.9 mph N/A   Overcast
10:55 AM 41.0 °F 31.1 °F 33.8 °F 76% 29.86 in 10.0 mi NNW 23.0 mph 29.9 mph N/A   Overcast
11:15 AM 42.8 °F 33.8 °F 33.8 °F 70% 29.87 in 10.0 mi NNW 21.9 mph 29.9 mph N/A   Overcast
11:35 AM 42.8 °F 33.5 °F 33.8 °F 70% 29.86 in 10.0 mi North 23.0 mph 28.8 mph N/A   Overcast
11:54 AM 41.0 °F 31.6 °F 33.8 °F 76% 29.87 in 10.0 mi NNW 20.7 mph 32.2 mph N/A   Light Drizzle
12:15 PM 42.8 °F 34.0 °F 35.6 °F 76% 29.87 in 10.0 mi North 20.7 mph 26.5 mph N/A Rain Light Rain
12:35 PM 42.8 °F 33.8 °F 35.6 °F 76% 29.87 in 10.0 mi North 21.9 mph 28.8 mph N/A Rain Light Rain
12:55 PM 42.8 °F 33.5 °F 35.6 °F 76% 29.87 in 10.0 mi NNW 23.0 mph 28.8 mph N/A Rain Light Rain
1:15 PM 42.8 °F 34.0 °F 35.6 °F 76% 29.86 in 10.0 mi NNW 20.7 mph 28.8 mph N/A   Light Drizzle
1:35 PM 42.8 °F 34.3 °F 35.6 °F 76% 29.87 in 10.0 mi NNW 19.6 mph 25.3 mph N/A   Overcast
1:55 PM 42.8 °F 34.5 °F 35.6 °F 76% 29.87 in 10.0 mi NNW 18.4 mph 25.3 mph N/A   Overcast
2:15 PM 42.8 °F 34.0 °F 35.6 °F 76% 29.87 in 10.0 mi North 20.7 mph 26.5 mph N/A   Overcast
2:35 PM 42.8 °F 33.5 °F 35.6 °F 76% 29.87 in 10.0 mi North 23.0 mph 29.9 mph N/A   Overcast
2:55 PM 42.8 °F 34.3 °F 35.6 °F 76% 29.88 in 10.0 mi North 19.6 mph 27.6 mph N/A   Overcast
3:15 PM 42.8 °F 34.0 °F 35.6 °F 76% 29.88 in 10.0 mi NNW 20.7 mph 29.9 mph N/A   Overcast
3:35 PM 42.8 °F 33.8 °F 35.6 °F 76% 29.88 in 10.0 mi North 21.9 mph 28.8 mph N/A   Overcast
3:55 PM 42.8 °F 34.5 °F 35.6 °F 76% 29.88 in 10.0 mi North 18.4 mph 25.3 mph N/A   Overcast
4:15 PM 42.8 °F 35.4 °F 35.6 °F 76% 29.88 in 10.0 mi NNW 15.0 mph - N/A   Overcast
4:35 PM 42.8 °F 34.5 °F 35.6 °F 76% 29.88 in 10.0 mi North 18.4 mph 23.0 mph N/A   Overcast
4:55 PM 42.8 °F 34.8 °F 35.6 °F 76% 29.88 in 10.0 mi North 17.3 mph 24.2 mph N/A   Overcast
5:15 PM 42.8 °F 34.0 °F 35.6 °F 76% 29.88 in 10.0 mi NNW 20.7 mph 27.6 mph N/A   Overcast
5:35 PM 42.8 °F 34.8 °F 35.6 °F 76% 29.88 in 10.0 mi North 17.3 mph 24.2 mph N/A   Overcast
5:55 PM 42.8 °F 35.8 °F 35.6 °F 76% 29.89 in 10.0 mi NNW 13.8 mph 21.9 mph N/A   Overcast
6:15 PM 42.8 °F 34.5 °F 35.6 °F 76% 29.89 in 10.0 mi NNW 18.4 mph 27.6 mph N/A   Overcast
6:35 PM 42.8 °F 34.5 °F 35.6 °F 76% 29.89 in 10.0 mi NNW 18.4 mph 24.2 mph N/A   Overcast
6:55 PM 42.8 °F 35.1 °F 35.6 °F 76% 29.88 in 10.0 mi NNW 16.1 mph 24.2 mph N/A   Overcast
7:15 PM 42.8 °F 34.5 °F 35.6 °F 76% 29.89 in 10.0 mi NNW 18.4 mph 24.2 mph N/A   Overcast
7:35 PM 41.0 °F 32.8 °F 35.6 °F 81% 29.89 in 10.0 mi NNW 16.1 mph 24.2 mph N/A   Overcast
7:55 PM 41.0 °F 32.8 °F 35.6 °F 81% 29.89 in 10.0 mi NNW 16.1 mph - N/A   Overcast
8:15 PM 41.0 °F 32.2 °F 35.6 °F 81% 29.89 in 10.0 mi NNW 18.4 mph 25.3 mph N/A   Overcast
8:35 PM 41.0 °F 32.5 °F 35.6 °F 81% 29.89 in 10.0 mi NNW 17.3 mph 25.3 mph N/A   Overcast
8:55 PM 41.0 °F 32.8 °F 35.6 °F 81% 29.89 in 10.0 mi NNW 16.1 mph 26.5 mph N/A   Overcast
9:15 PM 41.0 °F 32.5 °F 35.6 °F 81% 29.89 in 10.0 mi NNW 17.3 mph 25.3 mph N/A   Overcast
9:35 PM 41.0 °F 32.5 °F 35.6 °F 81% 29.90 in 10.0 mi NNW 17.3 mph 25.3 mph N/A   Overcast
9:55 PM 41.0 °F 32.2 °F 35.6 °F 81% 29.90 in 10.0 mi NNW 18.4 mph 23.0 mph N/A   Overcast
10:15 PM 41.0 °F 32.5 °F 35.6 °F 81% 29.89 in 10.0 mi NNW 17.3 mph 23.0 mph N/A   Overcast
10:35 PM 41.0 °F 33.1 °F 35.6 °F 81% 29.89 in 10.0 mi NNW 15.0 mph 23.0 mph N/A   Overcast
10:55 PM 41.0 °F 33.9 °F 35.6 °F 81% 29.89 in 10.0 mi NNW 12.7 mph - N/A   Overcast
11:15 PM 41.0 °F 33.9 °F 35.6 °F 81% 29.89 in 10.0 mi NNW 12.7 mph 18.4 mph N/A   Overcast
11:35 PM 41.0 °F 31.9 °F 35.6 °F 81% 29.88 in 10.0 mi North 19.6 mph 25.3 mph N/A   Overcast
11:55 PM 41.0 °F 32.8 °F 35.6 °F 81% 29.88 in 10.0 mi NNW 16.1 mph 20.7 mph N/A   Overcast